Year,Month,Day,Hour,Minute,Value (Times are PST for temperature in C)
2010,07,10,00,00,18.90
2010,07,10,00,01,18.90
2010,07,10,00,02,18.90
2010,07,10,00,03,18.90
2010,07,10,00,04,18.80
2010,07,10,00,05,18.80
2010,07,10,00,06,18.80
2010,07,10,00,07,18.80
2010,07,10,00,08,18.80
2010,07,10,00,09,18.80
2010,07,10,00,10,18.80
2010,07,10,00,11,18.80
2010,07,10,00,12,18.80
2010,07,10,00,13,18.80
2010,07,10,00,14,18.80
2010,07,10,00,15,18.80
2010,07,10,00,16,18.80
2010,07,10,00,17,18.80
2010,07,10,00,18,18.80
2010,07,10,00,19,18.80
2010,07,10,00,20,18.80
2010,07,10,00,21,18.80
2010,07,10,00,22,18.80
2010,07,10,00,23,18.80
2010,07,10,00,24,18.80
2010,07,10,00,25,18.80
2010,07,10,00,26,18.70
2010,07,10,00,27,18.70
2010,07,10,00,28,18.70
2010,07,10,00,29,18.70
2010,07,10,00,30,18.70
2010,07,10,00,31,18.70
2010,07,10,00,32,18.70
2010,07,10,00,33,18.70
2010,07,10,00,34,18.70
2010,07,10,00,35,18.60
2010,07,10,00,36,18.60
2010,07,10,00,37,18.60
2010,07,10,00,38,18.60
2010,07,10,00,39,18.60
2010,07,10,00,40,18.60
2010,07,10,00,41,18.60
2010,07,10,00,42,18.60
2010,07,10,00,43,18.60
2010,07,10,00,44,18.60
2010,07,10,00,45,18.60
2010,07,10,00,46,18.60
2010,07,10,00,47,18.60
2010,07,10,00,48,18.60
2010,07,10,00,49,18.60
2010,07,10,00,50,18.60
2010,07,10,00,51,18.60
2010,07,10,00,52,18.60
2010,07,10,00,53,18.60
2010,07,10,00,54,18.60
2010,07,10,00,55,18.60
2010,07,10,00,56,18.60
2010,07,10,00,57,18.60
2010,07,10,00,58,18.60
2010,07,10,00,59,18.60
2010,07,10,01,00,18.60
2010,07,10,01,01,18.60
2010,07,10,01,02,18.60
2010,07,10,01,03,18.60
2010,07,10,01,04,18.60
2010,07,10,01,05,18.60
2010,07,10,01,06,18.60
2010,07,10,01,07,18.60
2010,07,10,01,08,18.60
2010,07,10,01,09,18.50
2010,07,10,01,10,18.50
2010,07,10,01,11,18.50
2010,07,10,01,12,18.50
2010,07,10,01,13,18.50
2010,07,10,01,14,18.50
2010,07,10,01,15,18.50
2010,07,10,01,16,18.50
2010,07,10,01,17,18.50
2010,07,10,01,18,18.50
2010,07,10,01,19,18.50
2010,07,10,01,20,18.50
2010,07,10,01,21,18.50
2010,07,10,01,22,18.50
2010,07,10,01,23,18.50
2010,07,10,01,24,18.50
2010,07,10,01,25,18.50
2010,07,10,01,26,18.50
2010,07,10,01,27,18.50
2010,07,10,01,28,18.50
2010,07,10,01,29,18.50
2010,07,10,01,30,18.50
2010,07,10,01,31,18.40
2010,07,10,01,32,18.40
2010,07,10,01,33,18.40
2010,07,10,01,34,18.40
2010,07,10,01,35,18.40
2010,07,10,01,36,18.40
2010,07,10,01,37,18.40
2010,07,10,01,38,18.40
2010,07,10,01,39,18.40
2010,07,10,01,40,18.40
2010,07,10,01,41,18.40
2010,07,10,01,42,18.40
2010,07,10,01,43,18.40
2010,07,10,01,44,18.40
2010,07,10,01,45,18.40
2010,07,10,01,46,18.40
2010,07,10,01,47,18.40
2010,07,10,01,48,18.30
2010,07,10,01,49,18.30
2010,07,10,01,50,18.30
2010,07,10,01,51,18.30
2010,07,10,01,52,18.30
2010,07,10,01,53,18.30
2010,07,10,01,54,18.30
2010,07,10,01,55,18.30
2010,07,10,01,56,18.30
2010,07,10,01,57,18.30
2010,07,10,01,58,18.30
2010,07,10,01,59,18.30
2010,07,10,02,00,18.30
2010,07,10,02,01,18.30
2010,07,10,02,02,18.20
2010,07,10,02,03,18.20
2010,07,10,02,04,18.20
2010,07,10,02,05,18.20
2010,07,10,02,06,18.20
2010,07,10,02,07,18.20
2010,07,10,02,08,18.20
2010,07,10,02,09,18.20
2010,07,10,02,10,18.20
2010,07,10,02,11,18.20
2010,07,10,02,12,18.20
2010,07,10,02,13,18.20
2010,07,10,02,14,18.20
2010,07,10,02,15,18.20
2010,07,10,02,16,18.20
2010,07,10,02,17,18.20
2010,07,10,02,18,18.20
2010,07,10,02,19,18.20
2010,07,10,02,20,18.20
2010,07,10,02,21,18.20
2010,07,10,02,22,18.20
2010,07,10,02,23,18.20
2010,07,10,02,24,18.20
2010,07,10,02,25,18.20
2010,07,10,02,26,18.20
2010,07,10,02,27,18.10
2010,07,10,02,28,18.10
2010,07,10,02,29,18.10
2010,07,10,02,30,18.10
2010,07,10,02,31,18.10
2010,07,10,02,32,18.10
2010,07,10,02,33,18.10
2010,07,10,02,34,18.10
2010,07,10,02,35,18.10
2010,07,10,02,36,18.10
2010,07,10,02,37,18.10
2010,07,10,02,38,18.10
2010,07,10,02,39,18.10
2010,07,10,02,40,18.10
2010,07,10,02,41,18.10
2010,07,10,02,42,18.10
2010,07,10,02,43,18.10
2010,07,10,02,44,18.10
2010,07,10,02,45,18.10
2010,07,10,02,46,18.10
2010,07,10,02,47,18.10
2010,07,10,02,48,18.10
2010,07,10,02,49,18.10
2010,07,10,02,50,18.10
2010,07,10,02,51,18.10
2010,07,10,02,52,18.10
2010,07,10,02,53,18.10
2010,07,10,02,54,18.10
2010,07,10,02,55,18.10
2010,07,10,02,56,18.10
2010,07,10,02,57,18.10
2010,07,10,02,58,18.10
2010,07,10,02,59,18.10
2010,07,10,03,00,18.10
2010,07,10,03,01,18.10
2010,07,10,03,02,18.10
2010,07,10,03,03,18.10
2010,07,10,03,04,18.10
2010,07,10,03,05,18.10
2010,07,10,03,06,18.10
2010,07,10,03,07,18.10
2010,07,10,03,08,18.10
2010,07,10,03,09,18.10
2010,07,10,03,10,18.10
2010,07,10,03,11,18.10
2010,07,10,03,12,18.10
2010,07,10,03,13,18.10
2010,07,10,03,14,18.00
2010,07,10,03,15,17.90
2010,07,10,03,16,17.90
2010,07,10,03,17,17.90
2010,07,10,03,18,17.90
2010,07,10,03,19,17.90
2010,07,10,03,20,17.90
2010,07,10,03,21,17.90
2010,07,10,03,22,17.90
2010,07,10,03,23,17.90
2010,07,10,03,24,17.90
2010,07,10,03,25,17.90
2010,07,10,03,26,17.90
2010,07,10,03,27,17.90
2010,07,10,03,28,17.90
2010,07,10,03,29,17.80
2010,07,10,03,30,17.80
2010,07,10,03,31,17.80
2010,07,10,03,32,17.80
2010,07,10,03,33,17.80
2010,07,10,03,34,17.70
2010,07,10,03,35,17.70
2010,07,10,03,36,17.70
2010,07,10,03,37,17.70
2010,07,10,03,38,17.70
2010,07,10,03,39,17.70
2010,07,10,03,40,17.60
2010,07,10,03,41,17.60
2010,07,10,03,42,17.60
2010,07,10,03,43,17.60
2010,07,10,03,44,17.60
2010,07,10,03,45,17.50
2010,07,10,03,46,17.50
2010,07,10,03,47,17.50
2010,07,10,03,48,17.50
2010,07,10,03,49,17.50
2010,07,10,03,50,17.50
2010,07,10,03,51,17.50
2010,07,10,03,52,17.50
2010,07,10,03,53,17.40
2010,07,10,03,54,17.40
2010,07,10,03,55,17.30
2010,07,10,03,56,17.30
2010,07,10,03,57,17.30
2010,07,10,03,58,17.30
2010,07,10,03,59,17.30
2010,07,10,04,00,17.30
2010,07,10,04,01,17.30
2010,07,10,04,02,17.20
2010,07,10,04,03,17.20
2010,07,10,04,04,17.20
2010,07,10,04,05,17.10
2010,07,10,04,06,17.10
2010,07,10,04,07,17.10
2010,07,10,04,08,17.00
2010,07,10,04,09,17.00
2010,07,10,04,10,17.00
2010,07,10,04,11,17.00
2010,07,10,04,12,17.00
2010,07,10,04,13,16.90
2010,07,10,04,14,16.90
2010,07,10,04,15,16.90
2010,07,10,04,16,16.80
2010,07,10,04,17,16.80
2010,07,10,04,18,16.80
2010,07,10,04,19,16.80
2010,07,10,04,20,16.80
2010,07,10,04,21,16.70
2010,07,10,04,22,16.70
2010,07,10,04,23,16.70
2010,07,10,04,24,16.70
2010,07,10,04,25,16.70
2010,07,10,04,26,16.70
2010,07,10,04,27,16.70
2010,07,10,04,28,16.60
2010,07,10,04,29,16.60
2010,07,10,04,30,16.60
2010,07,10,04,31,16.60
2010,07,10,04,32,16.50
2010,07,10,04,33,16.40
2010,07,10,04,34,16.40
2010,07,10,04,35,16.40
2010,07,10,04,36,16.40
2010,07,10,04,37,16.40
2010,07,10,04,38,16.40
2010,07,10,04,39,16.40
2010,07,10,04,40,16.40
2010,07,10,04,41,16.40
2010,07,10,04,42,16.40
2010,07,10,04,43,16.30
2010,07,10,04,44,16.30
2010,07,10,04,45,16.30
2010,07,10,04,46,16.30
2010,07,10,04,47,16.30
2010,07,10,04,48,16.30
2010,07,10,04,49,16.30
2010,07,10,04,50,16.20
2010,07,10,04,51,16.20
2010,07,10,04,52,16.20
2010,07,10,04,53,16.20
2010,07,10,04,54,16.20
2010,07,10,04,55,16.20
2010,07,10,04,56,16.20
2010,07,10,04,57,16.20
2010,07,10,04,58,16.20
2010,07,10,04,59,16.20
2010,07,10,05,00,16.10
2010,07,10,05,01,16.10
2010,07,10,05,02,16.10
2010,07,10,05,03,16.10
2010,07,10,05,04,16.10
2010,07,10,05,05,16.10
2010,07,10,05,06,16.10
2010,07,10,05,07,16.10
2010,07,10,05,08,16.10
2010,07,10,05,09,16.10
2010,07,10,05,10,16.10
2010,07,10,05,11,16.10
2010,07,10,05,12,16.10
2010,07,10,05,13,16.10
2010,07,10,05,14,16.10
2010,07,10,05,15,16.10
2010,07,10,05,16,16.10
2010,07,10,05,17,16.10
2010,07,10,05,18,16.10
2010,07,10,05,19,16.10
2010,07,10,05,20,16.00
2010,07,10,05,21,15.90
2010,07,10,05,22,15.90
2010,07,10,05,23,15.90
2010,07,10,05,24,15.90
2010,07,10,05,25,15.90
2010,07,10,05,26,15.90
2010,07,10,05,27,15.90
2010,07,10,05,28,15.90
2010,07,10,05,29,15.90
2010,07,10,05,30,15.90
2010,07,10,05,31,15.90
2010,07,10,05,32,15.90
2010,07,10,05,33,15.90
2010,07,10,05,34,15.90
2010,07,10,05,35,15.90
2010,07,10,05,36,15.90
2010,07,10,05,37,15.90
2010,07,10,05,38,15.90
2010,07,10,05,39,15.90
2010,07,10,05,40,15.90
2010,07,10,05,41,15.80
2010,07,10,05,42,15.80
2010,07,10,05,43,15.80
2010,07,10,05,44,15.80
2010,07,10,05,45,15.80
2010,07,10,05,46,15.80
2010,07,10,05,47,15.80
2010,07,10,05,48,15.80
2010,07,10,05,49,15.80
2010,07,10,05,50,15.80
2010,07,10,05,51,15.80
2010,07,10,05,52,15.80
2010,07,10,05,53,15.80
2010,07,10,05,54,15.80
2010,07,10,05,55,15.80
2010,07,10,05,56,15.80
2010,07,10,05,57,15.80
2010,07,10,05,58,15.70
2010,07,10,05,59,15.70
2010,07,10,06,00,15.70
2010,07,10,06,01,15.60
2010,07,10,06,02,15.60
2010,07,10,06,03,15.60
2010,07,10,06,04,15.60
2010,07,10,06,05,15.60
2010,07,10,06,06,15.60
2010,07,10,06,07,15.60
2010,07,10,06,08,15.60
2010,07,10,06,09,15.50
2010,07,10,06,10,15.50
2010,07,10,06,11,15.50
2010,07,10,06,12,15.50
2010,07,10,06,13,15.50
2010,07,10,06,14,15.50
2010,07,10,06,15,15.50
2010,07,10,06,16,15.50
2010,07,10,06,17,15.50
2010,07,10,06,18,15.50
2010,07,10,06,19,15.50
2010,07,10,06,20,15.40
2010,07,10,06,21,15.40
2010,07,10,06,22,15.40
2010,07,10,06,23,15.40
2010,07,10,06,24,15.40
2010,07,10,06,25,15.40
2010,07,10,06,26,15.40
2010,07,10,06,27,15.40
2010,07,10,06,28,15.40
2010,07,10,06,29,15.40
2010,07,10,06,30,15.40
2010,07,10,06,31,15.40
2010,07,10,06,32,15.30
2010,07,10,06,33,15.30
2010,07,10,06,34,15.30
2010,07,10,06,35,15.30
2010,07,10,06,36,15.30
2010,07,10,06,37,15.30
2010,07,10,06,38,15.30
2010,07,10,06,39,15.30
2010,07,10,06,40,15.30
2010,07,10,06,41,15.30
2010,07,10,06,42,15.30
2010,07,10,06,43,15.30
2010,07,10,06,44,15.30
2010,07,10,06,45,15.30
2010,07,10,06,46,15.30
2010,07,10,06,47,15.30
2010,07,10,06,48,15.30
2010,07,10,06,49,15.30
2010,07,10,06,50,15.30
2010,07,10,06,51,15.30
2010,07,10,06,52,15.30
2010,07,10,06,53,15.30
2010,07,10,06,54,15.30
2010,07,10,06,55,15.40
2010,07,10,06,56,15.40
2010,07,10,06,57,15.40
2010,07,10,06,58,15.40
2010,07,10,06,59,15.40
2010,07,10,07,00,15.50
2010,07,10,07,01,15.50
2010,07,10,07,02,15.50
2010,07,10,07,03,15.50
2010,07,10,07,04,15.60
2010,07,10,07,05,15.60
2010,07,10,07,06,15.70
2010,07,10,07,07,15.70
2010,07,10,07,08,15.80
2010,07,10,07,09,15.80
2010,07,10,07,10,15.90
2010,07,10,07,11,15.90
2010,07,10,07,12,16.00
2010,07,10,07,13,16.10
2010,07,10,07,14,16.10
2010,07,10,07,15,16.20
2010,07,10,07,16,16.20
2010,07,10,07,17,16.30
2010,07,10,07,18,16.30
2010,07,10,07,19,16.40
2010,07,10,07,20,16.40
2010,07,10,07,21,16.40
2010,07,10,07,22,16.50
2010,07,10,07,23,16.60
2010,07,10,07,24,16.60
2010,07,10,07,25,16.70
2010,07,10,07,26,16.70
2010,07,10,07,27,16.70
2010,07,10,07,28,16.70
2010,07,10,07,29,16.70
2010,07,10,07,30,16.80
2010,07,10,07,31,16.80
2010,07,10,07,32,16.80
2010,07,10,07,33,16.80
2010,07,10,07,34,16.80
2010,07,10,07,35,16.80
2010,07,10,07,36,16.80
2010,07,10,07,37,16.90
2010,07,10,07,38,16.90
2010,07,10,07,39,16.90
2010,07,10,07,40,16.90
2010,07,10,07,41,16.90
2010,07,10,07,42,16.90
2010,07,10,07,43,16.90
2010,07,10,07,44,16.90
2010,07,10,07,45,16.90
2010,07,10,07,46,16.90
2010,07,10,07,47,16.90
2010,07,10,07,48,16.90
2010,07,10,07,49,17.00
2010,07,10,07,50,17.00
2010,07,10,07,51,17.00
2010,07,10,07,52,17.00
2010,07,10,07,53,17.00
2010,07,10,07,54,17.00
2010,07,10,07,55,17.00
2010,07,10,07,56,17.00
2010,07,10,07,57,17.00
2010,07,10,07,58,17.00
2010,07,10,07,59,17.00
2010,07,10,08,00,17.10
2010,07,10,08,01,17.10
2010,07,10,08,02,17.10
2010,07,10,08,03,17.10
2010,07,10,08,04,17.10
2010,07,10,08,05,17.10
2010,07,10,08,06,17.10
2010,07,10,08,07,17.10
2010,07,10,08,08,17.10
2010,07,10,08,09,17.10
2010,07,10,08,10,17.00
2010,07,10,08,11,17.00
2010,07,10,08,12,17.00
2010,07,10,08,13,17.00
2010,07,10,08,14,17.00
2010,07,10,08,15,16.90
2010,07,10,08,16,16.90
2010,07,10,08,17,16.90
2010,07,10,08,18,16.90
2010,07,10,08,19,16.90
2010,07,10,08,20,16.90
2010,07,10,08,21,16.80
2010,07,10,08,22,16.80
2010,07,10,08,23,16.80
2010,07,10,08,24,16.80
2010,07,10,08,25,16.80
2010,07,10,08,26,16.80
2010,07,10,08,27,16.80
2010,07,10,08,28,16.80
2010,07,10,08,29,16.80
2010,07,10,08,30,16.80
2010,07,10,08,31,16.80
2010,07,10,08,32,16.80
2010,07,10,08,33,16.70
2010,07,10,08,34,16.70
2010,07,10,08,35,16.70
2010,07,10,08,36,16.70
2010,07,10,08,37,16.70
2010,07,10,08,38,16.70
2010,07,10,08,39,16.70
2010,07,10,08,40,16.60
2010,07,10,08,41,16.60
2010,07,10,08,42,16.60
2010,07,10,08,43,16.60
2010,07,10,08,44,16.60
2010,07,10,08,45,16.50
2010,07,10,08,46,16.40
2010,07,10,08,47,16.40
2010,07,10,08,48,16.40
2010,07,10,08,49,16.40
2010,07,10,08,50,16.40
2010,07,10,08,51,16.40
2010,07,10,08,52,16.40
2010,07,10,08,53,16.40
2010,07,10,08,54,16.40
2010,07,10,08,55,16.40
2010,07,10,08,56,16.40
2010,07,10,08,57,16.40
2010,07,10,08,58,16.40
2010,07,10,08,59,16.50
2010,07,10,09,00,16.60
2010,07,10,09,01,16.60
2010,07,10,09,02,16.60
2010,07,10,09,03,16.70
2010,07,10,09,04,16.70
2010,07,10,09,05,16.70
2010,07,10,09,06,16.80
2010,07,10,09,07,16.80
2010,07,10,09,08,16.90
2010,07,10,09,09,17.00
2010,07,10,09,10,17.20
2010,07,10,09,11,17.30
2010,07,10,09,12,17.50
2010,07,10,09,13,17.60
2010,07,10,09,14,17.80
2010,07,10,09,15,17.90
2010,07,10,09,16,18.10
2010,07,10,09,17,18.20
2010,07,10,09,18,18.40
2010,07,10,09,19,18.50
2010,07,10,09,20,18.60
2010,07,10,09,21,18.70
2010,07,10,09,22,18.70
2010,07,10,09,23,18.90
2010,07,10,09,24,18.90
2010,07,10,09,25,19.10
2010,07,10,09,26,19.10
2010,07,10,09,27,19.10
2010,07,10,09,28,19.10
2010,07,10,09,29,19.10
2010,07,10,09,30,19.00
2010,07,10,09,31,18.90
2010,07,10,09,32,18.80
2010,07,10,09,33,18.70
2010,07,10,09,34,18.60
2010,07,10,09,35,18.50
2010,07,10,09,36,18.40
2010,07,10,09,37,18.30
2010,07,10,09,38,18.20
2010,07,10,09,39,18.20
2010,07,10,09,40,18.10
2010,07,10,09,41,18.10
2010,07,10,09,42,18.00
2010,07,10,09,43,17.90
2010,07,10,09,44,17.90
2010,07,10,09,45,17.90
2010,07,10,09,46,18.00
2010,07,10,09,47,18.10
2010,07,10,09,48,18.20
2010,07,10,09,49,18.20
2010,07,10,09,50,18.30
2010,07,10,09,51,18.40
2010,07,10,09,52,18.60
2010,07,10,09,53,18.60
2010,07,10,09,54,18.70
2010,07,10,09,55,18.70
2010,07,10,09,56,18.70
2010,07,10,09,57,18.60
2010,07,10,09,58,18.60
2010,07,10,09,59,18.60
2010,07,10,10,00,18.60
2010,07,10,10,01,18.70
2010,07,10,10,02,18.70
2010,07,10,10,03,18.60
2010,07,10,10,04,18.70
2010,07,10,10,05,18.70
2010,07,10,10,06,18.70
2010,07,10,10,07,18.70
2010,07,10,10,08,18.70
2010,07,10,10,09,18.80
2010,07,10,10,10,18.80
2010,07,10,10,11,18.80
2010,07,10,10,12,18.70
2010,07,10,10,13,18.70
2010,07,10,10,14,18.70
2010,07,10,10,15,18.80
2010,07,10,10,16,18.80
2010,07,10,10,17,18.90
2010,07,10,10,18,18.90
2010,07,10,10,19,19.10
2010,07,10,10,20,19.30
2010,07,10,10,21,19.40
2010,07,10,10,22,19.60
2010,07,10,10,23,19.70
2010,07,10,10,24,19.80
2010,07,10,10,25,19.80
2010,07,10,10,26,19.80
2010,07,10,10,27,19.80
2010,07,10,10,28,19.90
2010,07,10,10,29,19.90
2010,07,10,10,30,19.90
2010,07,10,10,31,20.00
2010,07,10,10,32,20.10
2010,07,10,10,33,20.20
2010,07,10,10,34,20.30
2010,07,10,10,35,20.30
2010,07,10,10,36,20.30
2010,07,10,10,37,20.30
2010,07,10,10,38,20.30
2010,07,10,10,39,20.20
2010,07,10,10,40,20.20
2010,07,10,10,41,20.20
2010,07,10,10,42,20.10
2010,07,10,10,43,20.00
2010,07,10,10,44,19.90
2010,07,10,10,45,19.70
2010,07,10,10,46,19.70
2010,07,10,10,47,19.50
2010,07,10,10,48,19.50
2010,07,10,10,49,19.40
2010,07,10,10,50,19.30
2010,07,10,10,51,19.30
2010,07,10,10,52,19.30
2010,07,10,10,53,19.40
2010,07,10,10,54,19.50
2010,07,10,10,55,19.60
2010,07,10,10,56,19.60
2010,07,10,10,57,19.70
2010,07,10,10,58,19.70
2010,07,10,10,59,19.70
2010,07,10,11,00,19.70
2010,07,10,11,01,19.70
2010,07,10,11,02,19.70
2010,07,10,11,03,19.70
2010,07,10,11,04,19.70
2010,07,10,11,05,19.70
2010,07,10,11,06,19.70
2010,07,10,11,07,19.60
2010,07,10,11,08,19.60
2010,07,10,11,09,19.60
2010,07,10,11,10,19.50
2010,07,10,11,11,19.50
2010,07,10,11,12,19.50
2010,07,10,11,13,19.50
2010,07,10,11,14,19.60
2010,07,10,11,15,19.60
2010,07,10,11,16,19.60
2010,07,10,11,17,19.60
2010,07,10,11,18,19.60
2010,07,10,11,19,19.60
2010,07,10,11,20,19.70
2010,07,10,11,21,19.70
2010,07,10,11,22,19.70
2010,07,10,11,23,19.80
2010,07,10,11,24,19.80
2010,07,10,11,25,19.90
2010,07,10,11,26,19.90
2010,07,10,11,27,19.90
2010,07,10,11,28,19.90
2010,07,10,11,29,19.90
2010,07,10,11,30,20.00
2010,07,10,11,31,20.10
2010,07,10,11,32,20.10
2010,07,10,11,33,20.10
2010,07,10,11,34,20.10
2010,07,10,11,35,20.10
2010,07,10,11,36,20.10
2010,07,10,11,37,20.10
2010,07,10,11,38,20.10
2010,07,10,11,39,20.10
2010,07,10,11,40,20.10
2010,07,10,11,41,20.20
2010,07,10,11,42,20.20
2010,07,10,11,43,20.20
2010,07,10,11,44,20.20
2010,07,10,11,45,20.10
2010,07,10,11,46,19.90
2010,07,10,11,47,19.90
2010,07,10,11,48,19.80
2010,07,10,11,49,19.80
2010,07,10,11,50,19.70
2010,07,10,11,51,19.70
2010,07,10,11,52,19.60
2010,07,10,11,53,19.60
2010,07,10,11,54,19.60
2010,07,10,11,55,19.60
2010,07,10,11,56,19.60
2010,07,10,11,57,19.60
2010,07,10,11,58,19.60
2010,07,10,11,59,19.60
2010,07,10,12,00,19.70
2010,07,10,12,01,19.70
2010,07,10,12,02,19.70
2010,07,10,12,03,19.70
2010,07,10,12,04,19.70
2010,07,10,12,05,19.70
2010,07,10,12,06,19.60
2010,07,10,12,07,19.60
2010,07,10,12,08,19.60
2010,07,10,12,09,19.60
2010,07,10,12,10,19.70
2010,07,10,12,11,19.80
2010,07,10,12,12,19.80
2010,07,10,12,13,19.90
2010,07,10,12,14,19.90
2010,07,10,12,15,19.90
2010,07,10,12,16,19.90
2010,07,10,12,17,19.90
2010,07,10,12,18,19.90
2010,07,10,12,19,20.00
2010,07,10,12,20,20.10
2010,07,10,12,21,20.10
2010,07,10,12,22,20.20
2010,07,10,12,23,20.20
2010,07,10,12,24,20.20
2010,07,10,12,25,20.20
2010,07,10,12,26,20.20
2010,07,10,12,27,20.20
2010,07,10,12,28,20.20
2010,07,10,12,29,20.20
2010,07,10,12,30,20.20
2010,07,10,12,31,20.20
2010,07,10,12,32,20.20
2010,07,10,12,33,20.20
2010,07,10,12,34,20.20
2010,07,10,12,35,20.20
2010,07,10,12,36,20.20
2010,07,10,12,37,20.20
2010,07,10,12,38,20.20
2010,07,10,12,39,20.20
2010,07,10,12,40,20.20
2010,07,10,12,41,20.20
2010,07,10,12,42,20.20
2010,07,10,12,43,20.20
2010,07,10,12,44,20.10
2010,07,10,12,45,20.10
2010,07,10,12,46,20.10
2010,07,10,12,47,20.10
2010,07,10,12,48,20.10
2010,07,10,12,49,20.10
2010,07,10,12,50,20.10
2010,07,10,12,51,20.10
2010,07,10,12,52,20.00
2010,07,10,12,53,19.90
2010,07,10,12,54,19.90
2010,07,10,12,55,19.90
2010,07,10,12,56,20.00
2010,07,10,12,57,20.10
2010,07,10,12,58,20.10
2010,07,10,12,59,20.10
2010,07,10,13,00,20.10
2010,07,10,13,01,20.20
2010,07,10,13,02,20.20
2010,07,10,13,03,20.20
2010,07,10,13,04,20.20
2010,07,10,13,05,20.20
2010,07,10,13,06,20.20
2010,07,10,13,07,20.20
2010,07,10,13,08,20.20
2010,07,10,13,09,20.20
2010,07,10,13,10,20.20
2010,07,10,13,11,20.20
2010,07,10,13,12,20.20
2010,07,10,13,13,20.20
2010,07,10,13,14,20.20
2010,07,10,13,15,20.20
2010,07,10,13,16,20.20
2010,07,10,13,17,20.20
2010,07,10,13,18,20.20
2010,07,10,13,19,20.30
2010,07,10,13,20,20.30
2010,07,10,13,21,20.30
2010,07,10,13,22,20.40
2010,07,10,13,23,20.40
2010,07,10,13,24,20.40
2010,07,10,13,25,20.40
2010,07,10,13,26,20.50
2010,07,10,13,27,20.60
2010,07,10,13,28,20.70
2010,07,10,13,29,20.80
2010,07,10,13,30,20.80
2010,07,10,13,31,20.90
2010,07,10,13,32,21.00
2010,07,10,13,33,21.10
2010,07,10,13,34,21.10
2010,07,10,13,35,21.20
2010,07,10,13,36,21.20
2010,07,10,13,37,21.30
2010,07,10,13,38,21.30
2010,07,10,13,39,21.30
2010,07,10,13,40,21.30
2010,07,10,13,41,21.40
2010,07,10,13,42,21.50
2010,07,10,13,43,21.60
2010,07,10,13,44,21.60
2010,07,10,13,45,21.60
2010,07,10,13,46,21.60
2010,07,10,13,47,21.60
2010,07,10,13,48,21.60
2010,07,10,13,49,21.60
2010,07,10,13,50,21.60
2010,07,10,13,51,21.60
2010,07,10,13,52,21.60
2010,07,10,13,53,21.60
2010,07,10,13,54,21.70
2010,07,10,13,55,21.70
2010,07,10,13,56,21.70
2010,07,10,13,57,21.80
2010,07,10,13,58,21.80
2010,07,10,13,59,21.80
2010,07,10,14,00,21.90
2010,07,10,14,01,22.00
2010,07,10,14,02,22.10
2010,07,10,14,03,22.20
2010,07,10,14,04,22.30
2010,07,10,14,05,22.30
2010,07,10,14,06,22.40
2010,07,10,14,07,22.40
2010,07,10,14,08,22.60
2010,07,10,14,09,22.60
2010,07,10,14,10,22.70
2010,07,10,14,11,22.80
2010,07,10,14,12,22.90
2010,07,10,14,13,22.90
2010,07,10,14,14,22.90
2010,07,10,14,15,22.90
2010,07,10,14,16,22.90
2010,07,10,14,17,23.00
2010,07,10,14,18,23.10
2010,07,10,14,19,23.10
2010,07,10,14,20,23.10
2010,07,10,14,21,23.00
2010,07,10,14,22,22.90
2010,07,10,14,23,22.80
2010,07,10,14,24,22.70
2010,07,10,14,25,22.70
2010,07,10,14,26,22.70
2010,07,10,14,27,22.70
2010,07,10,14,28,22.70
2010,07,10,14,29,22.70
2010,07,10,14,30,22.60
2010,07,10,14,31,22.60
2010,07,10,14,32,22.60
2010,07,10,14,33,22.60
2010,07,10,14,34,22.50
2010,07,10,14,35,22.40
2010,07,10,14,36,22.50
2010,07,10,14,37,22.60
2010,07,10,14,38,22.60
2010,07,10,14,39,22.70
2010,07,10,14,40,22.70
2010,07,10,14,41,22.80
2010,07,10,14,42,22.80
2010,07,10,14,43,22.80
2010,07,10,14,44,22.70
2010,07,10,14,45,22.60
2010,07,10,14,46,22.60
2010,07,10,14,47,22.60
2010,07,10,14,48,22.60
2010,07,10,14,49,22.60
2010,07,10,14,50,22.50
2010,07,10,14,51,22.50
2010,07,10,14,52,22.50
2010,07,10,14,53,22.50
2010,07,10,14,54,22.60
2010,07,10,14,55,22.70
2010,07,10,14,56,22.70
2010,07,10,14,57,22.60
2010,07,10,14,58,22.50
2010,07,10,14,59,22.50
2010,07,10,15,00,22.40
2010,07,10,15,01,22.40
2010,07,10,15,02,22.40
2010,07,10,15,03,22.40
2010,07,10,15,04,22.40
2010,07,10,15,05,22.50
2010,07,10,15,06,22.60
2010,07,10,15,07,22.60
2010,07,10,15,08,22.70
2010,07,10,15,09,22.70
2010,07,10,15,10,22.80
2010,07,10,15,11,22.90
2010,07,10,15,12,22.90
2010,07,10,15,13,23.10
2010,07,10,15,14,23.10
2010,07,10,15,15,23.20
2010,07,10,15,16,23.20
2010,07,10,15,17,23.30
2010,07,10,15,18,23.30
2010,07,10,15,19,23.30
2010,07,10,15,20,23.30
2010,07,10,15,21,23.30
2010,07,10,15,22,23.30
2010,07,10,15,23,23.30
2010,07,10,15,24,23.30
2010,07,10,15,25,23.30
2010,07,10,15,26,23.30
2010,07,10,15,27,23.30
2010,07,10,15,28,23.30
2010,07,10,15,29,23.40
2010,07,10,15,30,23.40
2010,07,10,15,31,23.40
2010,07,10,15,32,23.40
2010,07,10,15,33,23.40
2010,07,10,15,34,23.60
2010,07,10,15,35,23.60
2010,07,10,15,36,23.40
2010,07,10,15,37,23.40
2010,07,10,15,38,23.40
2010,07,10,15,39,23.50
2010,07,10,15,40,23.60
2010,07,10,15,41,23.70
2010,07,10,15,42,23.70
2010,07,10,15,43,23.80
2010,07,10,15,44,23.90
2010,07,10,15,45,24.00
2010,07,10,15,46,24.10
2010,07,10,15,47,24.10
2010,07,10,15,48,23.90
2010,07,10,15,49,23.90
2010,07,10,15,50,23.90
2010,07,10,15,51,23.90
2010,07,10,15,52,23.80
2010,07,10,15,53,23.80
2010,07,10,15,54,23.90
2010,07,10,15,55,23.90
2010,07,10,15,56,23.90
2010,07,10,15,57,23.90
2010,07,10,15,58,23.90
2010,07,10,15,59,23.90
2010,07,10,16,00,23.80
2010,07,10,16,01,23.90
2010,07,10,16,02,23.90
2010,07,10,16,03,23.90
2010,07,10,16,04,23.90
2010,07,10,16,05,23.90
2010,07,10,16,06,23.90
2010,07,10,16,07,23.90
2010,07,10,16,08,23.90
2010,07,10,16,09,23.90
2010,07,10,16,10,23.90
2010,07,10,16,11,23.90
2010,07,10,16,12,23.90
2010,07,10,16,13,23.90
2010,07,10,16,14,24.00
2010,07,10,16,15,24.10
2010,07,10,16,16,24.20
2010,07,10,16,17,24.30
2010,07,10,16,18,24.30
2010,07,10,16,19,24.20
2010,07,10,16,20,24.20
2010,07,10,16,21,24.10
2010,07,10,16,22,24.10
2010,07,10,16,23,24.10
2010,07,10,16,24,24.10
2010,07,10,16,25,24.20
2010,07,10,16,26,24.30
2010,07,10,16,27,24.40
2010,07,10,16,28,24.50
2010,07,10,16,29,24.50
2010,07,10,16,30,24.60
2010,07,10,16,31,24.70
2010,07,10,16,32,24.70
2010,07,10,16,33,24.70
2010,07,10,16,34,24.60
2010,07,10,16,35,24.60
2010,07,10,16,36,24.50
2010,07,10,16,37,24.40
2010,07,10,16,38,24.30
2010,07,10,16,39,24.30
2010,07,10,16,40,24.20
2010,07,10,16,41,24.20
2010,07,10,16,42,24.20
2010,07,10,16,43,24.20
2010,07,10,16,44,24.30
2010,07,10,16,45,24.30
2010,07,10,16,46,24.30
2010,07,10,16,47,24.30
2010,07,10,16,48,24.30
2010,07,10,16,49,24.30
2010,07,10,16,50,24.40
2010,07,10,16,51,24.50
2010,07,10,16,52,24.60
2010,07,10,16,53,24.70
2010,07,10,16,54,24.60
2010,07,10,16,55,24.60
2010,07,10,16,56,24.50
2010,07,10,16,57,24.40
2010,07,10,16,58,24.30
2010,07,10,16,59,24.10
2010,07,10,17,00,24.10
2010,07,10,17,01,23.90
2010,07,10,17,02,23.70
2010,07,10,17,03,23.70
2010,07,10,17,04,23.70
2010,07,10,17,05,23.70
2010,07,10,17,06,23.60
2010,07,10,17,07,23.60
2010,07,10,17,08,23.60
2010,07,10,17,09,23.60
2010,07,10,17,10,23.60
2010,07,10,17,11,23.70
2010,07,10,17,12,23.70
2010,07,10,17,13,23.70
2010,07,10,17,14,23.70
2010,07,10,17,15,23.70
2010,07,10,17,16,23.70
2010,07,10,17,17,23.70
2010,07,10,17,18,23.70
2010,07,10,17,19,23.70